STARLINK-30543

decayed
NORAD ID: 57996 Int'l Des: 2023-153 Owner: SPXS Country: US Constellation: starlink
LEOCIRCULAR
グループ

STARLINK-30543について

説明を読み込み中...

高度履歴

Altitude vs Time

uPlot chart will show altitude changes over time

軌道要素

1 57996U 23153F 25110.53637685 .28770667 90180-5 73402-2 0 9996
2 57996 42.9808 143.2871 0003913 133.7499 356.0268 16.27830248 89049
Epoch: Apr 20, 2025 • Age: 3398 hours

現在のステータス

Position data unavailable
打ち上げ日 Oct 5, 2023
運用期間 1.9 years
落下予定日 Apr 20, 2025
タイプ internet

技術仕様

分類 Payload
質量 730.00 kg
乾燥質量 700.00 kg
総質量 730.00 kg
長さ 0.30 m
直径 4.10 m
スパン 29.00 m
形状 Box + pan
製造者 SPXS
バスタイプ Starlink V2M
フェーズステータス Unknown Transfer Status
所有者/国 SPXS/US

大規模コンステレーション

Loading constellations...